Location: Arrington
(35.8681°N, 86.7092°W)
Time: 21:35:16
(UTC+00:00)

USA 116 - Pass Details

Date: 23 November 2019
Orbit: 405 x 834 km, 97.9° (Epoch: 18 November)

Event Time Altitude Azimuth Distance (km) Brightness Sun altitude
Rises 11:43:53 0° 181° (S) 2,379 7.2 -9.7°
Reaches altitude 10° 11:45:51 10° 188° (S) 1,553 6.2 -9.3°
Maximum altitude 11:49:01 43° 261° (W) 667 3.8 -8.7°
Drops below altitude 10° 11:52:32 10° 335° (NNW) 1,728 5.8 -8.0°
Sets 11:54:50 0° 341° (NNW) 2,690 6.9 -7.6°
